Regional Weather Roundup
Issued by NWS Green Bay, WI

Home | Current Version | Previous Version | Graphics & Text | Print | Product List | Glossary Off
Versions: 1 2 3 4 5 6 7 8 9 10 11 12 13 14 15 16 17 18 19 20 21 22 23 24 25 26 27 28 29 30 31 32 33 34 35 36 37 38 39 40 41 42 43 44 45 46 47 48 49 50

730
ASUS43 KGRB 272000
RWRGRB

NORTH-CENTRAL AND NORTHEAST WISCONSIN REGIONAL WEATHER ROUNDUP
NATIONAL WEATHER SERVICE GREEN BAY WI
300 PM CDT TUE SEP 27 2016

WIZ005-009-010>012-018-019-272100-
NORTH CENTRAL WISCONSIN

CITY           SKY/WX    TMP DP  RH WIND       PRES   REMARKS
IRONWOOD       LGT RAIN  48  47  96 W12G18    29.66R FOG
MANITOWISH WTR NOT AVBL
ARBOR VITAE    NOT AVBL
EAGLE RIVER    NOT AVBL
LAND O LAKES   NOT AVBL
RHINELANDER    CLOUDY    50  48  93 W12       29.65R
PHILLIPS       NOT AVBL
ANTIGO         NOT AVBL
TOMAHAWK       NOT AVBL
MERRILL        NOT AVBL
$$

WIZ013-073-272100-
NORTHEAST WISCONSIN

CITY           SKY/WX    TMP DP  RH WIND       PRES   REMARKS
IRON MOUNTAIN  LGT RAIN  51  46  83 NW12      29.60R
MARINETTE      NOT AVBL
$$

WIZ017-030-035>037-045-272100-
CENTRAL WISCONSIN

CITY           SKY/WX    TMP DP  RH WIND       PRES   REMARKS
MEDFORD        NOT AVBL
WAUSAU         LGT RAIN  50  47  89 W14       29.68R
MOSINEE        RAIN      48  48 100 W14G22    29.71R
MARSHFIELD     LGT RAIN  52  45  77 W10       29.71R
WISC RAPIDS    CLOUDY    54  45  71 W12       29.73R
STEVENS POINT  NOT AVBL
WAUPACA        NOT AVBL
SHAWANO        NOT AVBL
CLINTONVILLE   NOT AVBL
WAUTOMA        CLOUDY    56  44  64 W14       29.72S
$$

WIZ038-039-048-051-272100-
FOX VALLEY

CITY           SKY/WX    TMP DP  RH WIND       PRES   REMARKS
NWS GREEN BAY  CLOUDY    57  47  69 W8        29.66R
APPLETON       CLOUDY    54  43  66 W14G23    29.68R
OSHKOSH        CLOUDY    56  44  64 W7        29.70R
FOND DU LAC    CLOUDY    56  44  64 W15G21    29.71S
$$

WIZ022-050-052-272100-
EAST CENTRAL WISCONSIN

CITY           SKY/WX    TMP DP  RH WIND       PRES   REMARKS
EPHRAIM        NOT AVBL
WASHINGTON ISL NOT AVBL
STURGEON BAY   NOT AVBL
MANITOWOC      NOT AVBL
SHEBOYGAN      CLOUDY    58  44  60 W13G21    29.70R
$$

LMZ563-521-522-541>543-272100-
LAKESHORE

STATION/POSITION TIME  TEMP    WIND        PRES    VSBY  WAVE
                       AIR SEA DIR/SP/G                  HT/PER
                 (UTC) (F)     (DEG/KT/KT) (MB)    (MI)  (FT/S)
SHEBOYGAN LKSHOR 1900   56     250/ 13/ 16 1005.3R
KEWAUNEE LKSHORE 1900   57     260/  9/ 17 1003.4S
NORTHPORT PIER   1900   52     290/  8/ 16 1003.0R
N MID LAKE BUOY  1850   54 66  280/ 19/ 23 1001.3R         4/ 6
CHAMBERS ISLAND  1900   52     230/  6/ 11 1003.0
MENOMINEE LKSHOR 1900   53     250/  6/ 11 1002.7R
$$




USA.gov is the U.S. government's official web portal to all federal, state and local government web resources and services.